TimeMST,TemperatureF,Dew PointF,Humidity,Sea Level PressureIn,VisibilityMPH,Wind Direction,Wind SpeedMPH,Gust SpeedMPH,PrecipitationIn,Events,Conditions,WindDirDegrees,DateUTC
12:54 AM,42.1,-4.0,14,30.23,10.0,Variable,4.6,-,N/A,,Clear,0,2013-05-03 07:54:00
1:54 AM,39.0,-2.9,17,30.21,10.0,ENE,6.9,-,N/A,,Clear,70,2013-05-03 08:54:00
2:54 AM,33.1,-2.0,22,30.22,10.0,ESE,3.5,-,N/A,,Clear,120,2013-05-03 09:54:00
3:54 AM,24.1,-2.9,31,30.25,10.0,Calm,Calm,-,N/A,,Clear,0,2013-05-03 10:54:00
4:54 AM,21.0,-2.9,35,30.26,10.0,Calm,Calm,-,N/A,,Clear,0,2013-05-03 11:54:00
5:54 AM,21.9,-2.0,35,30.26,10.0,Calm,Calm,-,N/A,,Clear,0,2013-05-03 12:54:00
6:54 AM,37.0,1.9,23,30.20,10.0,Calm,Calm,-,N/A,,Clear,0,2013-05-03 13:54:00
7:54 AM,50.0,-0.0,13,30.14,10.0,East,15.0,21.9,N/A,,Clear,80,2013-05-03 14:54:00
8:54 AM,55.0,-0.9,10,30.10,10.0,ENE,10.4,-,N/A,,Clear,60,2013-05-03 15:54:00
9:54 AM,59.0,-2.0,8,30.09,10.0,SE,8.1,-,N/A,,Clear,130,2013-05-03 16:54:00
10:54 AM,62.1,-0.0,8,30.08,10.0,Variable,6.9,18.4,N/A,,Clear,0,2013-05-03 17:54:00
11:54 AM,64.9,1.0,8,30.03,10.0,ENE,13.8,19.6,N/A,,Clear,60,2013-05-03 18:54:00
12:54 PM,64.9,-5.1,6,29.99,10.0,Variable,4.6,-,N/A,,Clear,0,2013-05-03 19:54:00
1:54 PM,66.9,-4.0,6,29.97,10.0,Variable,3.5,-,N/A,,Clear,0,2013-05-03 20:54:00
2:54 PM,68.0,-2.9,6,29.95,10.0,NW,6.9,-,N/A,,Clear,320,2013-05-03 21:54:00
3:54 PM,70.0,-6.0,5,29.96,10.0,WSW,6.9,26.5,N/A,,Clear,240,2013-05-03 22:54:00
4:54 PM,68.0,-6.0,5,29.96,10.0,Variable,4.6,-,N/A,,Clear,0,2013-05-03 23:54:00
5:54 PM,66.9,-7.1,5,29.95,10.0,Variable,5.8,-,N/A,,Clear,0,2013-05-04 00:54:00
6:54 PM,62.1,-5.1,7,29.90,10.0,NNW,3.5,-,N/A,,Clear,330,2013-05-04 01:54:00
7:54 PM,41.0,1.0,19,29.95,10.0,Calm,Calm,-,N/A,,Clear,0,2013-05-04 02:54:00
8:54 PM,36.0,-0.9,21,29.95,10.0,Calm,Calm,-,N/A,,Clear,0,2013-05-04 03:54:00
9:54 PM,35.1,1.0,24,29.94,10.0,Calm,Calm,-,N/A,,Clear,0,2013-05-04 04:54:00
10:54 PM,33.1,1.0,26,29.92,10.0,ENE,6.9,-,N/A,,Clear,60,2013-05-04 05:54:00
11:54 PM,28.9,-0.0,29,29.92,10.0,Calm,Calm,-,N/A,,Clear,0,2013-05-04 06:54:00